Location: Vlissingen
(51.4500°N, 3.5830°E)
Time: 10:03:07
(UTC+02:00)

Envisat - Pass Details

Date: 29 May 2024
Orbit: 762 x 764 km, 98.3° (Epoch: 13 June)

Event Time Altitude Azimuth Distance (km) Brightness Sun altitude
Rises 04:43:51 0° 18° (NNE) 3,240 7.7 -6.9°
Reaches altitude 10° 04:46:15 10° 24° (NNE) 2,309 6.9 -6.6°
Maximum altitude 04:51:10 47° 99° (E) 1,002 3.9 -6.1°
Drops below altitude 10° 04:56:02 10° 173° (S) 2,292 5.1 -5.6°
Sets 04:58:25 0° 179° (S) 3,214 5.8 -5.3°
